Location: Albuquerque Trailhead
(34.7934°N, 106.3736°W)
Time: 12:48:46
(UTC+00:00)

Cosmos 2150 Rocket - Pass Details

Date: 20 June 2021
Orbit: 749 x 808 km, 74.0° (Epoch: 30 July)

Event Time Altitude Azimuth Distance (km) Brightness Sun altitude
Rises 09:22:26 0° 347° (NNW) 3,219 7.8 -23.5°
Reaches altitude 10° 09:24:50 10° 351° (N) 2,298 7.1 -23.2°
Maximum altitude 09:29:58 59° 71° (ENE) 888 4.5 -22.6°
Enters shadow 09:34:09 16° 148° (SSE) 1,945 5.9 -22.1°
